Regional Weather Roundup
Issued by NWS

Home | Current Version | Previous Version | Text Only | Print | Product List | Glossary On
Versions: 1 2 3 4 5 6 7 8 9 10 11 12 13 14 15 16 17 18 19 20 21 22 23 24 25 26 27 28 29 30 31 32 33 34 35 36 37 38 39 40 41 42 43 44 45 46 47 48 49 50
584
ASUS43 KFSD 221810
RWRSD

WEATHER ROUNDUP FOR SOUTH DAKOTA
NATIONAL WEATHER SERVICE SIOUX FALLS SD
1200 PM CST WED JAN 22 2020

NOTE: "FAIR" INDICATES FEW OR NO CLOUDS BELOW 12,000 FEET WITH NO
SIGNIFICANT WEATHER AND/OR OBSTRUCTIONS TO VISIBILITY.


SDZ001>005-009-010-012>017-221900-
NORTHWEST AND NORTH CENTRAL SOUTH DAKOTA

CITY           SKY/WX    TMP DP  RH WIND       PRES   REMARKS
BUFFALO          N/A     42  27  55 NW26G36   29.76R
MOBRIDGE       PTSUNNY   36  27  69 CALM      29.73R
$$

SDZ012>016-024>037-041>051-057-063-072>074-221900-
SOUTHWEST AND SOUTH CENTRAL SOUTH DAKOTA

CITY           SKY/WX    TMP DP  RH WIND       PRES   REMARKS
RAPID CTY ARPT CLOUDY    46  31  55 N7        29.77R
PIERRE         CLOUDY    36  29  75 NW7       29.76R
CUSTER         CLOUDY    43  24  47 VRB5      29.78S
ELLSWORTH AFB  CLOUDY    43  31  63 N14       29.77R
PHILIP         CLOUDY    42  31  64 W6        29.76S
PINE RIDGE     CLOUDY    38  30  73 CALM      29.79S
SPEARFISH      LGT RAIN  37  34  87 NW16G23   29.84R
WINNER         CLOUDY    36  28  73 NW7       29.75S
$$

SDZ004>011-016>023-039-040-221900-
NORTHEAST SOUTH DAKOTA

CITY           SKY/WX    TMP DP  RH WIND       PRES   REMARKS
ABERDEEN       PTSUNNY   29  23  78 S6        29.77F WCI  23
WATERTOWN      CLOUDY    30  28  92 S7        29.76F FOG     WCI  23
BROOKINGS      CLOUDY    36  36 100 S9        29.77F FOG
SISSETON         N/A     31  25  78 CALM      29.76F
$$

SDZ017-020-022-023-036>040-048>070-221900-
SOUTHEAST SOUTH DAKOTA

CITY           SKY/WX    TMP DP  RH WIND       PRES   REMARKS
SIOUX FALLS    CLOUDY    36  32  85 S9        29.78F
HURON          CLOUDY    29  26  89 NW5       29.77S FOG     WCI  24
CHAMBERLAIN    CLOUDY    34  32  92 CALM      29.75F
MADISON        CLOUDY    32  32 100 S8        29.76F WCI  25
MITCHELL       PTSUNNY   37  32  82 S6        29.77F
YANKTON        CLOUDY    37  33  85 S5        29.78F
$$

ABBREVIATIONS USED IN REMARKS
   TC - TEMPERATURE IN CELSIUS
  WCI - WIND CHILL INDEX
   HX - HEAT INDEX
  VSB - VISIBILITY





USA.gov is the U.S. government's official web portal to all federal, state and local government web resources and services.